This is the latest recevied weather packets stored in our database for station/object K1RFS. If no packets are shown the sender has not sent any weather packets the latest 10 day(s).
| Time | Temp. | Humidity | Pressure | Rain* | Wind** | Luminosity | Snow |
|---|---|---|---|---|---|---|---|
| 1787681619 | 31.11° C | 28% | 1009.8 hPa | 0 mm | - | 563 W/m² | - |
| 1787681314 | 31.11° C | 29% | 1009.8 hPa | 0 mm | - | 556 W/m² | - |
| 1787681010 | 30° C | 29% | 1009.8 hPa | 0 mm | - | 548 W/m² | - |
| 1787680709 | 30° C | 29% | 1009.8 hPa | 0 mm | - | 543 W/m² | - |
| 1787680409 | 30.56° C | 29% | 1010 hPa | 0 mm | - | 536 W/m² | - |
| 1787680108 | 30° C | 30% | 1009.7 hPa | 0 mm | - | 43 W/m² | - |
| 1787679803 | 30° C | 31% | 1010.1 hPa | 0 mm | - | 42 W/m² | - |
| 1787679501 | 30° C | 31% | 1010.1 hPa | 0 mm | - | 41 W/m² | - |
| 1787679198 | 30° C | 33% | 1010 hPa | 0 mm | - | 40 W/m² | - |
| 1787678893 | 30° C | 33% | 1010.2 hPa | 0 mm | - | 40 W/m² | - |
| 1787678592 | 29.44° C | 34% | 1010 hPa | 0 mm | - | 39 W/m² | - |
| 1787678282 | 29.44° C | 30% | 1010.1 hPa | 0 mm | - | 38 W/m² | - |
| 1787677977 | 29.44° C | 30% | 1010 hPa | 0 mm | - | 38 W/m² | - |
| 1787677671 | 29.44° C | 31% | 1010.1 hPa | 0 mm | - | 37 W/m² | - |
| 1787677371 | 29.44° C | 31% | 1010.1 hPa | 0 mm | - | 37 W/m² | - |
| 1787677064 | 28.89° C | 34% | 1010.1 hPa | 0 mm | - | 37 W/m² | - |
| 1787676760 | 28.89° C | 34% | 1010.2 hPa | 0 mm | - | 37 W/m² | - |
| 1787676449 | 28.33° C | 33% | 1010.1 hPa | 0 mm | - | 36 W/m² | - |
| 1787676146 | 28.33° C | 35% | 1009.8 hPa | 0 mm | - | 36 W/m² | - |
| 1787675841 | 27.78° C | 35% | 1010.2 hPa | 0 mm | - | 36 W/m² | - |
| 1787675538 | 27.78° C | 35% | 1010.1 hPa | 0 mm | - | 35 W/m² | - |
| 1787675235 | 27.22° C | 36% | 1010 hPa | 0 mm | - | 35 W/m² | - |
| 1787674930 | 27.22° C | 37% | 1010 hPa | 0 mm | - | 35 W/m² | - |
| 1787674626 | 27.22° C | 36% | 1010.1 hPa | 0 mm | - | 35 W/m² | - |
| 1787674321 | 26.67° C | 39% | 1010.1 hPa | 0 mm | - | 35 W/m² | - |
* Rain latest hour (hover to see other rain measurements)
** Current wind speed in m/s (hover to see current wind gust speed)